sat.trackr.live / text

‹ back to catalog

STARLINK-37302

NORAD 68669 · 2026-077H

PAYLOAD ACTIVE UNKNOWN

§ Identity

Operator
Country
US
Launch date
2026-04-11
Launch site
AFWTR
Launch vehicle
Mass (kg)
RCS (m²)

Purposes: comms

External: N2YO · Heavens-Above · Gunter

§ Orbital elements

Epoch: 2026-09-19T01:55:13.927584Z

Period
93.91 min
Inclination
97.2888°
Eccentricity
0.0000975
Mean motion
15.33459877 rev/d
Perigee alt
464.8 km
Apogee alt
466.2 km
Semi-major
6,843.6 km
B*
4.9029e-4
RAAN
131.9678°
Arg perigee
111.7166°
Mean anomaly
248.4181°
Rev number
2,479

§ Raw data

STARLINK-373021 68669U 26077H   26262.08002231  .00015794  00000+0  49029-3 0  99932 68669  97.2888 131.9678 0000975 111.7166 248.4181 15.33459877 24790

JSON: /api/v1/satellites/68669 · /tle

For live sub-satellite position, see the globe view (requires WebGL).

§ Visibility from observer

Set your observer location to see the next 7 days of passes ≥ 10°. The values pass through the URL so the page stays shareable.

No JS? Fill the form by hand. The geolocation button needs JavaScript.